KJ4UBX-11 Weather Reports


time (UTC)temp
C
wind
direction
speed
KPH
gust
KPH
rain 1hr
cm
rain 24hr
cm
rain mn
cm
humidity
%
barometer
mb
20260505021853 13 0.0 0.0 0.00 0.00 0.00 71 1006.1
20260505020910 13 0.0 0.0 0.00 0.00 0.00 71 1006.0
20260505015928 13 0.0 0.0 0.00 0.00 0.00 72 1006.0
20260505014945 13 0.0 0.0 0.00 0.00 0.00 73 1006.0
20260505014001 13 0.0 0.0 0.00 0.00 0.00 74 1006.0
20260505013019 13 0.0 0.0 0.00 0.00 0.00 73 1005.8
20260505012036 13 0.0 0.0 0.00 0.00 0.00 72 1005.7
20260505011054 13 0.0 0.0 0.00 0.00 0.00 70 1005.6
20260505010110 13 0.0 0.0 0.00 0.00 0.00 69 1005.5
20260505005127 13 0.0 0.0 0.00 0.00 0.00 68 1005.3
20260505004145 13 0.0 0.0 0.00 0.00 0.00 69 1005.3
20260505003202 13 0.0 0.0 0.00 0.00 0.00 67 1005.0
20260505002219 14 0.0 0.0 0.00 0.00 0.00 64 1004.8
20260505001239 14 0.0 0.0 0.00 0.00 0.00 64 1004.8
20260505000255 15 0.0 0.0 0.00 0.00 0.00 62 1004.6
20260504235311 15 0.0 0.0 0.00 0.00 0.00 60 1004.7
20260504233346 15 0.0 0.0 0.00 0.00 0.00 58 1004.4
20260504232404 16 0.0 0.0 0.00 0.00 0.00 54 1004.3
20260504231422 17 0.0 0.0 0.00 0.00 0.00 53 1004.0
20260504230441 18 0.0 0.0 0.00 0.00 0.00 51 1003.9
20260504225500 19 0.0 0.0 0.00 0.00 0.00 48 1003.8
20260504224519 20 0.0 0.0 0.00 0.00 0.00 45 1003.7
20260504223538 22 0.0 0.0 0.00 0.00 0.00 39 1003.5
20260504222557 23 0.0 0.0 0.00 0.00 0.00 34 1003.4
20260504221614 24 0.0 0.0 0.00 0.00 0.00 30 1003.4
20260504220632 25 0.0 0.0 0.00 0.00 0.00 29 1003.3
20260504215648 25 0.0 0.0 0.00 0.00 0.00 31 1003.4
20260504214706 25 0.0 0.0 0.00 0.00 0.00 29 1003.3
20260504213722 25 0.0 0.0 0.00 0.00 0.00 30 1003.4
20260504212739 25 0.0 0.0 0.00 0.00 0.00 29 1003.3
20260504211756 25 0.0 0.0 0.00 0.00 0.00 28 1003.4
20260504210812 25 0.0 0.0 0.00 0.00 0.00 30 1003.3
20260504205830 24 0.0 0.0 0.00 0.00 0.00 34 1003.3
20260504204846 25 0.0 0.0 0.00 0.00 0.00 35 1003.2
20260504203903 25 0.0 0.0 0.00 0.00 0.00 33 1003.2
20260504202919 25 0.0 0.0 0.00 0.00 0.00 29 1003.2
20260504201935 24 0.0 0.0 0.00 0.00 0.00 30 1003.4
20260504200952 25 0.0 0.0 0.00 0.00 0.00 34 1003.5
20260504200008 24 0.0 0.0 0.00 0.00 0.00 32 1003.5
20260504195027 25 0.0 0.0 0.00 0.00 0.00 31 1003.6
20260504194043 25 0.0 0.0 0.00 0.00 0.00 30 1003.5
20260504193059 26 0.0 0.0 0.00 0.00 0.00 29 1003.6
20260504192116 26 0.0 0.0 0.00 0.00 0.00 30 1003.5
20260504191133 26 0.0 0.0 0.00 0.00 0.00 31 1003.7
20260504190148 25 0.0 0.0 0.00 0.00 0.00 29 1003.8
20260504185203 24 0.0 0.0 0.00 0.00 0.00 32 1003.8
20260504184220 23 0.0 0.0 0.00 0.00 0.00 32 1004.0
20260504183237 23 0.0 0.0 0.00 0.00 0.00 32 1004.1
20260504182254 23 0.0 0.0 0.00 0.00 0.00 30 1003.9
20260504181312 24 0.0 0.0 0.00 0.00 0.00 30 1003.8
20260504180330 24 0.0 0.0 0.00 0.00 0.00 31 1003.8
20260504175345 25 0.0 0.0 0.00 0.00 0.00 29 1003.8
20260504174401 23 0.0 0.0 0.00 0.00 0.00 30 1003.8
20260504173418 23 0.0 0.0 0.00 0.00 0.00 30 1003.8
20260504172437 24 0.0 0.0 0.00 0.00 0.00 30 1003.7
20260504171454 25 0.0 0.0 0.00 0.00 0.00 33 1003.6
20260504170509 24 0.0 0.0 0.00 0.00 0.00 34 1003.5
20260504150856 39 0.0 0.0 0.00 0.00 0.00 17 1004.9
20260504141012 28 0.0 0.0 0.00 0.00 0.00 27 1005.8
20260504130202 27 0.0 0.0 0.00 0.00 0.00 28 1006.6
20260504110450 13 0.0 0.0 0.00 0.00 0.00 46 1007.1
20260504081932 9 0.0 0.0 0.00 0.00 0.00 49 1006.9
20260504080948 8 0.0 0.0 0.00 0.00 0.00 50 1007.0
20260504070146 7 0.0 0.0 0.00 0.00 0.00 53 1006.9
20260504050513 8 0.0 0.0 0.00 0.00 0.00 54 1006.7
20260504045530 7 0.0 0.0 0.00 0.00 0.00 54 1006.7
20260504044548 7 0.0 0.0 0.00 0.00 0.00 56 1006.7
20260504043605 7 0.0 0.0 0.00 0.00 0.00 54 1006.7
20260504042622 7 0.0 0.0 0.00 0.00 0.00 54 1006.8
20260504041639 7 0.0 0.0 0.00 0.00 0.00 55 1006.8
20260504040656 7 0.0 0.0 0.00 0.00 0.00 54 1006.8
20260504035713 8 0.0 0.0 0.00 0.00 0.00 54 1006.7
20260504034732 8 0.0 0.0 0.00 0.00 0.00 54 1006.6
20260504033749 8 0.0 0.0 0.00 0.00 0.00 52 1006.5
20260504032806 8 0.0 0.0 0.00 0.00 0.00 52 1006.6
20260504031823 8 0.0 0.0 0.00 0.00 0.00 51 1006.5
20260504030841 8 0.0 0.0 0.00 0.00 0.00 52 1006.5
20260504025858 8 0.0 0.0 0.00 0.00 0.00 53 1006.5
20260504024915 8 0.0 0.0 0.00 0.00 0.00 53 1006.5
20260504023932 8 0.0 0.0 0.00 0.00 0.00 52 1006.5
20260504022951 8 0.0 0.0 0.00 0.00 0.00 52 1006.5